Regional Weather Roundup
Issued by NWS

Home | Current Version | Previous Version | Graphics & Text | Print | Product List | Glossary On
Versions: 1 2 3 4 5 6 7 8 9 10 11 12 13 14 15 16 17 18 19 20 21 22 23 24 25 26 27 28 29 30 31 32 33 34 35 36 37 38 39 40 41 42 43 44 45 46 47 48 49 50
338
ASUS44 KJAN 011603
RWRMS

MISSISSIPPI HOURLY WEATHER ROUNDUP
NATIONAL WEATHER SERVICE JACKSON MS
1100 AM CDT MON SEP 01 2014

NOTE: "FAIR: INDICATES FEW OR NO CLOUDS BELOW 12,000 FEET WITH NO
SIGNIFICANT WEATHER AND/OR OBSTRUCTIONS TO VISIBILITY.

MSZ001>002-007>008-010>013-018>021-025>028-034>036-011700-
NORTHWEST MISSISSIPPI

CITY           SKY/WX    TMP DP  RH WIND       PRES   REMARKS
CLARKSDALE     PTSUNNY   84  77  79 SW7       30.08R HX  94
CLEVELAND      PTSUNNY   83  77  80 SW8       30.06R HX  92
GREENWOOD      MOSUNNY   85  74  69 SW8       30.07S HX  92
GREENVILLE     PTSUNNY   85  76  74 S12       30.05R HX  94
GRENADA        FAIR      86  72  62 SW7       30.08S HX  92
OLIVE BRANCH   PTSUNNY   82  79  89 W9        30.08R HX  93
OXFORD         FAIR      82  73  74 W5        30.10S
TUNICA         PTSUNNY   84  73  70 S12       30.07R HX  91
$$

MSZ003>006-009-014>017-022>024-029>033-037>039-011700-
NORTHEAST MISSISSIPPI

CITY           SKY/WX    TMP DP  RH WIND       PRES   REMARKS
BELMONT        FAIR      83  73  72 SW7       30.11S
COLUMBUS AFB   MOSUNNY   85  72  64 SW3       30.10S HX  91
CORINTH        FAIR      86  73  66 SW12      30.08S HX  93
GOLDN TRIANGLE MOSUNNY   82  73  74 S6        30.11S
STARKVILLE     FAIR      86  72  62 SW5       30.10R HX  92
TUPELO         SUNNY     87  72  60 SW8       30.08F HX  93
$$

MSZ040-058-011700-
CENTRAL MISSISSIPPI

CITY           SKY/WX    TMP DP  RH WIND       PRES   REMARKS
JACKSON INTL   MOSUNNY   87  72  60 S14       30.08F HX  93
JACKSON HAWKNS MOSUNNY   87  74  64 S8        30.08F HX  95
MERIDIAN KEY   SUNNY     88  72  58 S12       30.10S HX  94
MERIDIAN NAS   SUNNY     88  71  57 SE9       30.11R HX  94
RAYMOND        FAIR      86  82  89 SE12G18   30.07S HX 105
VICKSBURG      MOSUNNY   87  76  69 S8        30.06R HX  97
$$

MSZ059>079-011700-
SOUTH MISSISSIPPI

CITY           SKY/WX    TMP DP  RH WIND       PRES   REMARKS
BROOKHAVEN     FAIR      86  75  70 S12       30.10S HX  95
HATTIESBURG    MOSUNNY   88  73  61 SE10      30.10S HX  95
MCCOMB         PTSUNNY   85  73  67 SE12G21   30.08S HX  91
NATCHEZ        PTSUNNY   86  79  79 SE12      30.07S HX  99
PINE BELT      MOSUNNY   88  73  62 S8        30.12S HX  96
$$

MSZ080>082-011700-
COASTAL MISSISSIPPI

CITY           SKY/WX    TMP DP  RH WIND       PRES   REMARKS
BAY ST LOUIS   MOSUNNY  N/A N/A N/A S13G21    30.08S
BILOXI         MOSUNNY   90  76  65 SE10      30.09R HX 101
PASCAGOULA     MOSUNNY   89  74  60 SE9       30.09S HX  98
GULFPORT       MOSUNNY   88  77  69 SE14      30.08R HX 100
$$



USA.gov is the U.S. government's official web portal to all federal, state and local government web resources and services.